DG4MND-4 Weather Reports


Display with metric or nautical units.
time (UTC)temp
F
wind
direction
speed
MPH
gust
MPH
rain 1hr
in
rain 24hr
in
rain mn
in
humidity
%
barometer
mb
20260507114113 58 172 2.0 7.0 0.00 0.14 0.01 69 1013.5
20260507113110 58 149 3.0 7.0 0.00 0.14 0.01 70 1013.5
20260507112109 58 182 2.0 7.0 0.00 0.14 0.01 72 1013.5
20260507111103 57 204 3.0 8.0 0.00 0.14 0.01 71 1013.5
20260507110059 56 146 3.0 6.0 0.00 0.14 0.01 73 1013.6
20260507105056 56 172 3.0 7.0 0.00 0.14 0.01 74 1013.8
20260507104052 56 160 2.0 7.0 0.00 0.14 0.01 77 1013.7
20260507103049 54 237 2.0 6.0 0.00 0.14 0.01 78 1013.8
20260507102045 55 223 2.0 8.0 0.00 0.14 0.01 77 1013.7
20260507101042 55 212 1.0 4.0 0.00 0.14 0.01 77 1013.8
20260507100041 54 237 1.0 6.0 0.00 0.14 0.01 81 1013.8
20260507095038 54 138 2.0 4.0 0.00 0.14 0.01 81 1013.7
20260507094031 52 217 2.0 4.0 0.00 0.14 0.01 85 1013.8
20260507093029 52 158 1.0 6.0 0.00 0.14 0.01 87 1013.6
20260507092024 51 142 2.0 4.0 0.00 0.14 0.01 87 1013.6
20260507091020 52 137 2.0 7.0 0.00 0.14 0.01 87 1013.5
20260507090020 51 184 1.0 4.0 0.01 0.14 0.01 90 1013.5
20260507085114 50 184 1.0 4.0 0.01 0.14 0.01 92 1013.5
20260507084113 49 186 1.0 4.0 0.01 0.14 0.01 94 1013.4
20260507083107 49 180 2.0 4.0 0.01 0.14 0.01 93 1013.3
20260507082103 49 198 1.0 4.0 0.01 0.14 0.01 94 1013.4
20260507081100 49 244 2.0 4.0 0.01 0.14 0.01 93 1013.3
20260507080056 49 166 1.0 2.0 0.00 0.13 0.00 93 1013.2
20260507075053 49 227 1.0 4.0 0.00 0.13 0.00 92 1013.2
20260507074053 50 243 2.0 7.0 0.00 0.13 0.00 91 1013.0
20260507073049 50 237 2.0 4.0 0.00 0.13 0.00 91 1013.0
20260507072042 49 180 1.0 2.0 0.00 0.13 0.00 94 1012.9
20260507071039 48 225 1.0 4.0 0.00 0.13 0.00 94 1012.8
20260507070036 48 208 2.0 6.0 0.00 0.13 0.00 92 1012.7
20260507065032 49 189 2.0 8.0 0.00 0.13 0.00 91 1012.6
20260507064028 49 159 1.0 4.0 0.00 0.13 0.00 89 1012.4
20260507063025 49 207 2.0 8.0 0.00 0.13 0.00 90 1012.6
20260507062024 49 322 2.0 8.0 0.00 0.13 0.00 89 1012.3
20260507061021 49 317 2.0 4.0 0.00 0.13 0.00 90 1012.2
20260507060118 49 168 2.0 7.0 0.00 0.13 0.00 90 1012.2
20260507055111 48 196 2.0 6.0 0.00 0.13 0.00 91 1012.1
20260507054112 48 144 2.0 4.0 0.00 0.13 0.00 91 1012.1
20260507053105 48 203 1.0 4.0 0.00 0.13 0.00 92 1012.0
20260507052101 47 257 2.0 6.0 0.00 0.13 0.00 92 1011.8
20260507051101 47 249 2.0 6.0 0.00 0.13 0.00 93 1011.7
20260507050054 47 100 1.0 4.0 0.00 0.13 0.00 93 1011.6
20260507045054 47 201 1.0 4.0 0.00 0.13 0.00 93 1011.4
20260507044050 47 199 1.0 7.0 0.00 0.13 0.00 92 1011.3
20260507043047 46 219 2.0 4.0 0.00 0.13 0.00 93 1011.3
20260507042049 45 218 1.0 7.0 0.00 0.13 0.00 94 1011.1
20260507041041 46 101 1.0 4.0 0.00 0.13 0.00 94 1011.0
20260507040037 45 135 0.0 2.0 0.00 0.13 0.00 93 1010.8
20260507035033 46 224 0.0 2.0 0.00 0.13 0.00 93 1010.8
20260507034027 46 191 1.0 4.0 0.00 0.13 0.00 93 1010.7
20260507033027 46 225 0.0 2.0 0.00 0.13 0.00 92 1010.6
20260507032020 46 135 1.0 4.0 0.00 0.13 0.00 92 1010.6
20260507031017 46 198 1.0 4.0 0.00 0.13 0.00 91 1010.8
20260507030113 47 256 1.0 4.0 0.00 0.13 0.00 90 1010.7
20260507025110 47 194 1.0 7.0 0.00 0.13 0.00 90 1010.6
20260507024110 47 166 1.0 6.0 0.00 0.13 0.00 90 1010.6
20260507023103 47 118 1.0 4.0 0.00 0.13 0.00 90 1010.6
20260507022103 47 334 1.0 4.0 0.00 0.13 0.00 91 1010.5
20260507021059 47 248 1.0 6.0 0.00 0.13 0.00 92 1010.6
20260507020053 46 202 2.0 4.0 0.00 0.13 0.00 94 1010.5
20260507015049 46 171 1.0 2.0 0.00 0.13 0.00 95 1010.6
20260507014046 45 158 0.0 2.0 0.00 0.13 0.00 95 1010.4
20260507013043 45 0.0 2.0 0.00 0.13 0.00 96 1010.5
20260507012039 45 135 0.0 2.0 0.00 0.13 0.00 97 1010.5
20260507011039 44 0.0 2.0 0.00 0.13 0.00 97 1010.4
20260507010036 44 158 0.0 4.0 0.00 0.13 0.00 97 1010.5
20260507005058 44 0.0 2.0 0.00 0.13 0.00 97 1010.4
20260507004055 44 0.0 2.0 0.00 0.13 0.00 97 1010.2
20260507003052 45 0.0 2.0 0.00 0.13 0.00 96 1010.4
20260507002048 45 147 0.0 4.0 0.00 0.13 0.00 96 1010.3
20260507001045 45 135 1.0 4.0 0.00 0.13 0.00 96 1010.3
20260507000041 45 225 0.0 2.0 0.00 0.13 0.00 95 1010.4
20260506235037 46 0.0 2.0 0.00 0.13 0.00 95 1010.5
20260506234034 46 135 0.0 2.0 0.00 0.13 0.00 95 1010.5
20260506233031 46 203 0.0 2.0 0.00 0.13 0.00 94 1010.4
20260506232028 47 182 1.0 4.0 0.00 0.13 0.00 93 1010.2
20260506231026 47 218 1.0 2.0 0.00 0.13 0.00 93 1010.2
20260506230023 47 171 1.0 4.0 0.00 0.13 0.00 93 1010.2
20260506225020 47 126 1.0 4.0 0.00 0.13 0.00 93 1010.2
20260506224113 47 174 0.0 2.0 0.00 0.13 0.00 93 1010.2
20260506223110 47 180 0.0 2.0 0.00 0.13 0.00 93 1010.1
20260506222107 47 203 0.0 2.0 0.00 0.13 0.00 93 1010.0
20260506221103 47 140 1.0 4.0 0.00 0.13 0.00 93 1009.9
20260506220059 47 159 1.0 4.0 0.00 0.13 0.00 92 1010.0
20260506215056 48 181 1.0 4.0 0.00 0.13 0.13 92 1009.9
20260506214052 48 158 0.0 2.0 0.00 0.13 0.13 92 1009.8
20260506213049 48 174 1.0 2.0 0.00 0.13 0.13 91 1009.9
20260506212046 48 187 1.0 4.0 0.00 0.13 0.13 91 1009.9
20260506211042 48 164 1.0 4.0 0.00 0.13 0.13 91 1009.7
20260506210042 48 216 1.0 4.0 0.00 0.13 0.13 92 1009.8
20260506205036 48 249 1.0 7.0 0.00 0.13 0.13 92 1009.7
20260506204032 48 243 1.0 4.0 0.00 0.13 0.13 92 1009.7
20260506203029 48 217 1.0 2.0 0.00 0.13 0.13 92 1009.6
20260506202028 48 207 1.0 4.0 0.00 0.13 0.13 91 1009.6
20260506201021 48 196 1.0 4.0 0.00 0.13 0.13 91 1009.5
20260506200018 49 188 1.0 4.0 0.00 0.15 0.13 90 1009.3
20260506195115 48 175 1.0 4.0 0.00 0.17 0.13 91 1009.6
20260506194112 48 255 1.0 4.0 0.00 0.17 0.13 90 1009.4
20260506193108 49 187 1.0 6.0 0.00 0.18 0.13 90 1009.5
20260506192104 48 161 1.0 4.0 0.00 0.19 0.13 90 1009.2
20260506191104 48 161 1.0 4.0 0.00 0.19 0.13 90 1009.0
20260506190058 49 222 2.0 4.0 0.00 0.19 0.13 90 1009.0
20260506185057 49 211 2.0 7.0 0.00 0.19 0.13 89 1008.7
20260506184051 49 178 2.0 7.0 0.00 0.19 0.13 89 1008.7
20260506183047 49 159 2.0 8.0 0.00 0.19 0.13 89 1008.6
20260506182043 50 231 2.0 4.0 0.00 0.19 0.13 88 1008.4
20260506181040 50 259 1.0 4.0 0.00 0.19 0.13 88 1008.3
20260506180039 50 190 2.0 4.0 0.00 0.19 0.13 88 1008.3
20260506175034 50 161 2.0 11.0 0.00 0.19 0.13 87 1008.0
20260506174033 50 177 3.0 8.0 0.00 0.19 0.13 87 1008.1
20260506173026 50 161 2.0 7.0 0.00 0.19 0.13 87 1008.0
20260506172023 50 196 2.0 11.0 0.00 0.19 0.13 87 1007.8
20260506171022 50 171 2.0 11.0 0.00 0.19 0.13 88 1007.7
20260506170016 50 195 1.0 4.0 0.00 0.19 0.13 90 1007.6
20260506165116 50 176 1.0 4.0 0.00 0.19 0.13 89 1007.3
20260506164110 50 151 2.0 6.0 0.00 0.19 0.13 89 1007.3
20260506163109 50 235 3.0 9.0 0.00 0.19 0.13 89 1007.4
20260506162103 50 194 2.0 4.0 0.00 0.19 0.13 89 1007.6
20260506161103 50 226 2.0 4.0 0.00 0.20 0.13 90 1007.6
20260506160056 51 210 2.0 7.0 0.06 0.20 0.13 88 1007.4
20260506155052 51 196 3.0 8.0 0.06 0.20 0.13 90 1007.3
20260506154051 51 208 2.0 7.0 0.06 0.20 0.13 92 1007.2
20260506153045 51 184 2.0 8.0 0.06 0.20 0.13 93 1007.1
20260506152041 52 181 2.0 14.0 0.06 0.20 0.13 93 1006.9
20260506151038 51 153 3.0 14.0 0.06 0.20 0.13 93 1006.5
20260506150034 56 226 4.0 11.0 0.01 0.14 0.07 80 1006.2
20260506145034 61 163 0.0 2.0 0.01 0.14 0.07 73 1004.7
20260506144028 65 180 0.0 2.0 0.04 0.14 0.07 67 1004.7
20260506143024 64 203 1.0 2.0 0.06 0.14 0.07 67 1004.8
20260506142024 64 180 0.0 2.0 0.07 0.14 0.07 70 1004.9
20260506141017 61 158 1.0 4.0 0.07 0.14 0.07 78 1004.9
20260506140114 59 151 0.0 2.0 0.06 0.13 0.06 89 1004.9
20260506135114 56 68 1.0 2.0 0.06 0.13 0.06 89 1004.9
20260506134107 57 150 3.0 6.0 0.04 0.11 0.04 82 1005.5
20260506133104 59 190 1.0 2.0 0.01 0.08 0.01 79 1005.4
20260506132101 61 185 1.0 2.0 0.00 0.07 0.00 72 1005.4
20260506131105 61 180 1.0 2.0 0.00 0.07 0.00 65 1005.4
20260506130053 61 246 1.0 2.0 0.00 0.07 0.00 64 1005.2
20260506125050 62 255 1.0 2.0 0.00 0.07 0.00 62 1005.1
20260506124046 63 0 0.0 2.0 0.00 0.07 0.00 62 1004.8
20260506123043 64 310 0.0 2.0 0.00 0.07 0.00 61 1004.6
20260506122043 64 293 0.0 2.0 0.00 0.07 0.00 61 1004.8
20260506121036 62 358 1.0 7.0 0.00 0.07 0.00 64 1004.5
20260506120033 63 57 1.0 6.0 0.00 0.07 0.00 63 1004.5
20260506115032 63 343 0.0 2.0 0.00 0.08 0.00 61 1004.8